Location: Glens Falls
(43.3090°N, 73.6440°W)
Time: 16:38:38

Cosmos 2251 Rocket - Pass Details

Date: 24 February 2018
Orbit: 765 x 792 km, 74.0° (Epoch: 21 March)

Event Time Altitude Azimuth Distance (km) Brightness Sun altitude
Rises 19:46:46 0° 198° (SSW) 3,218 6.8 -24.2°
Reaches altitude 10° 19:49:08 10° 198° (SSW) 2,295 6.0 -24.6°
Maximum altitude 19:54:20 89° 114° (ESE) 771 3.4 -25.6°
Enters shadow 19:56:10 42° 21° (NNE) 1,083 4.1 -25.9°
